Voltar ao catálogo

STARLINK-38117

AtivoComunicaçõesVLEO
NORAD 100006·PAYLOAD·🇺🇸 United States

Lançado Jul 14, 2026 de Vandenberg Space Force Base

Loading…

Próximas Passagens (próximas 24 horas)

TLE

AtualizadoSource: Space-Track

Época: Sep 14, 2026, 06:52 UTC

1 A0006U 26160F   26257.28638267  .00140074  00000-0  82568-3 0  9993
2 A0006  70.0008 212.4993 0003451 270.3883  89.6921 15.77615545 11011

Acompanhe STARLINK-38117 em tempo real com AllMySat

Download on the App Store